Time,TemperatureF,DewpointF,PressureIn,WindDirection,WindDirectionDegrees,WindSpeedMPH,WindSpeedGustMPH,Humidity,HourlyPrecipIn,Conditions,Clouds,dailyrainin,SoftwareType,DateUTC
2014-10-31 00:03:00,78.9,66.0,29.87,ESE,114,0.0,0.0,66,0.00,,,0.00,TxWx,2014-10-31 04:03:00,
2014-10-31 00:08:00,78.7,67.0,29.87,ESE,114,0.0,0.0,66,0.00,,,0.00,TxWx,2014-10-31 04:08:00,
2014-10-31 00:13:00,78.7,67.0,29.87,ESE,114,0.0,0.0,68,0.00,,,0.00,TxWx,2014-10-31 04:13:00,
2014-10-31 00:18:00,78.0,67.0,29.87,South,181,0.0,0.0,70,0.00,,,0.00,TxWx,2014-10-31 04:18:00,
2014-10-31 00:23:00,77.6,68.0,29.87,South,181,0.0,0.0,71,0.00,,,0.00,TxWx,2014-10-31 04:23:00,
2014-10-31 00:28:00,77.4,67.0,29.87,South,181,0.0,0.0,71,0.00,,,0.00,TxWx,2014-10-31 04:28:00,
2014-10-31 00:33:00,77.1,67.0,29.87,South,181,0.0,0.0,72,0.00,,,0.00,TxWx,2014-10-31 04:33:00,
2014-10-31 00:38:00,76.7,67.0,29.86,South,181,0.0,0.0,72,0.00,,,0.00,TxWx,2014-10-31 04:38:00,
2014-10-31 00:43:00,76.5,67.0,29.86,South,181,0.0,0.0,73,0.00,,,0.00,TxWx,2014-10-31 04:43:00,
2014-10-31 00:48:00,76.3,67.0,29.87,SSW,204,0.0,0.0,75,0.00,,,0.00,TxWx,2014-10-31 04:48:00,
2014-10-31 00:53:00,76.1,68.0,29.86,SSW,204,0.0,0.0,76,0.00,,,0.00,TxWx,2014-10-31 04:53:00,
2014-10-31 00:58:00,75.8,68.0,29.86,WSW,249,0.0,0.0,77,0.00,,,0.00,TxWx,2014-10-31 04:58:00,
2014-10-31 01:03:00,75.5,68.0,29.86,WSW,249,0.0,0.0,78,0.00,,,0.00,TxWx,2014-10-31 05:03:00,
2014-10-31 01:08:00,75.2,67.0,29.86,WSW,249,3.7,3.7,78,0.00,,,0.00,TxWx,2014-10-31 05:08:00,
2014-10-31 01:13:00,75.1,68.0,29.87,WSW,249,3.1,3.1,78,0.00,,,0.00,TxWx,2014-10-31 05:13:00,
2014-10-31 01:18:00,75.0,68.0,29.86,WSW,249,3.1,3.7,79,0.00,,,0.00,TxWx,2014-10-31 05:18:00,
2014-10-31 01:23:00,74.7,68.0,29.87,WSW,249,5.0,5.0,79,0.00,,,0.00,TxWx,2014-10-31 05:23:00,
2014-10-31 01:28:00,74.7,68.0,29.87,WSW,249,3.7,3.7,80,0.00,,,0.00,TxWx,2014-10-31 05:28:00,
2014-10-31 01:33:00,74.5,67.0,29.86,WSW,249,4.3,4.3,80,0.00,,,0.00,TxWx,2014-10-31 05:33:00,
2014-10-31 01:38:00,74.4,67.0,29.86,WSW,249,4.3,5.0,80,0.00,,,0.00,TxWx,2014-10-31 05:38:00,
2014-10-31 01:43:00,74.4,68.0,29.86,West,271,5.0,5.6,81,0.00,,,0.00,TxWx,2014-10-31 05:43:00,
2014-10-31 01:48:00,74.5,68.0,29.86,WSW,249,4.3,4.3,81,0.00,,,0.00,TxWx,2014-10-31 05:48:00,
2014-10-31 01:53:00,74.3,68.0,29.86,West,271,5.0,5.0,81,0.00,,,0.00,TxWx,2014-10-31 05:53:00,
2014-10-31 01:58:00,74.2,68.0,29.86,WSW,249,5.0,5.6,81,0.00,,,0.00,TxWx,2014-10-31 05:58:00,
2014-10-31 02:03:00,74.2,68.0,29.86,WSW,249,4.3,5.0,81,0.00,,,0.00,TxWx,2014-10-31 06:03:00,
2014-10-31 02:08:00,74.2,68.0,29.86,WSW,249,3.7,3.7,81,0.00,,,0.00,TxWx,2014-10-31 06:08:00,
2014-10-31 02:13:00,74.2,68.0,29.85,WSW,249,4.3,6.2,82,0.00,,,0.00,TxWx,2014-10-31 06:13:00,
2014-10-31 02:18:00,74.1,68.0,29.85,West,271,4.3,5.0,81,0.00,,,0.00,TxWx,2014-10-31 06:18:00,
2014-10-31 02:23:00,74.0,68.0,29.85,West,271,4.3,4.3,82,0.00,,,0.00,TxWx,2014-10-31 06:23:00,
2014-10-31 02:28:00,74.1,68.0,29.84,WSW,249,5.0,5.0,82,0.00,,,0.00,TxWx,2014-10-31 06:28:00,
2014-10-31 02:33:00,74.1,68.0,29.84,WSW,249,4.3,4.3,82,0.00,,,0.00,TxWx,2014-10-31 06:33:00,
2014-10-31 02:38:00,74.0,68.0,29.84,West,271,3.7,3.7,82,0.00,,,0.00,TxWx,2014-10-31 06:38:00,
2014-10-31 02:43:00,74.0,68.0,29.84,WSW,249,1.9,2.5,82,0.00,,,0.00,TxWx,2014-10-31 06:43:00,
2014-10-31 02:48:00,73.9,68.0,29.83,WSW,249,3.1,3.1,82,0.00,,,0.00,TxWx,2014-10-31 06:48:00,
2014-10-31 02:53:00,74.0,68.0,29.83,WSW,249,3.7,3.7,82,0.00,,,0.00,TxWx,2014-10-31 06:53:00,
2014-10-31 02:58:00,74.0,68.0,29.83,WSW,249,5.0,5.0,82,0.00,,,0.00,TxWx,2014-10-31 06:58:00,
2014-10-31 03:03:00,73.9,68.0,29.83,WSW,249,4.3,5.0,82,0.00,,,0.00,TxWx,2014-10-31 07:03:00,
2014-10-31 03:08:00,73.8,68.0,29.82,WSW,249,3.1,3.7,81,0.00,,,0.00,TxWx,2014-10-31 07:08:00,
2014-10-31 03:13:00,73.7,68.0,29.82,WSW,249,4.3,4.3,81,0.00,,,0.00,TxWx,2014-10-31 07:13:00,
2014-10-31 03:18:00,73.9,68.0,29.82,West,271,3.7,3.7,82,0.00,,,0.00,TxWx,2014-10-31 07:18:00,
2014-10-31 03:23:00,73.8,68.0,29.82,West,271,3.7,3.7,82,0.00,,,0.00,TxWx,2014-10-31 07:23:00,
2014-10-31 03:28:00,73.7,68.0,29.82,WSW,249,4.3,4.3,81,0.00,,,0.00,TxWx,2014-10-31 07:28:00,
2014-10-31 03:33:00,73.6,68.0,29.81,West,271,4.3,5.0,81,0.00,,,0.00,TxWx,2014-10-31 07:33:00,
2014-10-31 03:38:00,73.7,68.0,29.81,WSW,249,4.3,4.3,81,0.00,,,0.00,TxWx,2014-10-31 07:38:00,
2014-10-31 03:43:00,73.5,68.0,29.81,WSW,249,4.3,5.0,81,0.00,,,0.00,TxWx,2014-10-31 07:43:00,
2014-10-31 03:48:00,73.5,68.0,29.81,WSW,249,4.3,4.3,81,0.00,,,0.00,TxWx,2014-10-31 07:48:00,
2014-10-31 03:53:00,73.6,68.0,29.81,WSW,249,4.3,4.3,81,0.00,,,0.00,TxWx,2014-10-31 07:53:00,
2014-10-31 03:58:00,73.6,68.0,29.81,WSW,249,4.3,4.3,81,0.00,,,0.00,TxWx,2014-10-31 07:58:00,
2014-10-31 04:03:00,73.5,67.0,29.81,WSW,249,4.3,4.3,81,0.00,,,0.00,TxWx,2014-10-31 08:03:00,
2014-10-31 04:08:00,73.5,68.0,29.81,West,271,3.7,3.7,82,0.00,,,0.00,TxWx,2014-10-31 08:08:00,
2014-10-31 04:13:00,73.5,68.0,29.81,West,271,4.3,4.3,82,0.00,,,0.00,TxWx,2014-10-31 08:13:00,
2014-10-31 04:18:00,73.5,68.0,29.81,WSW,249,2.5,3.1,82,0.00,,,0.00,TxWx,2014-10-31 08:18:00,
2014-10-31 04:23:00,73.4,67.0,29.81,West,271,2.5,3.1,82,0.00,,,0.00,TxWx,2014-10-31 08:23:00,
2014-10-31 04:28:00,73.4,67.0,29.80,West,271,2.5,3.1,83,0.00,,,0.00,TxWx,2014-10-31 08:28:00,
2014-10-31 04:33:00,73.4,67.0,29.80,West,271,3.7,3.7,83,0.00,,,0.00,TxWx,2014-10-31 08:33:00,
2014-10-31 04:38:00,73.5,68.0,29.80,West,271,1.9,3.1,83,0.00,,,0.00,TxWx,2014-10-31 08:38:00,
2014-10-31 04:43:00,73.3,68.0,29.80,West,271,1.2,1.2,83,0.00,,,0.00,TxWx,2014-10-31 08:43:00,
2014-10-31 04:48:00,73.2,68.0,29.80,West,271,0.0,0.0,83,0.00,,,0.00,TxWx,2014-10-31 08:48:00,
2014-10-31 04:53:00,73.1,68.0,29.80,West,271,0.0,0.0,83,0.00,,,0.00,TxWx,2014-10-31 08:53:00,
2014-10-31 04:58:00,73.2,68.0,29.80,West,271,2.5,2.5,84,0.00,,,0.00,TxWx,2014-10-31 08:58:00,
2014-10-31 05:03:00,73.2,68.0,29.80,West,271,2.5,2.5,84,0.00,,,0.00,TxWx,2014-10-31 09:03:00,
2014-10-31 05:08:00,73.0,68.0,29.80,West,271,1.9,1.9,84,0.00,,,0.00,TxWx,2014-10-31 09:08:00,
2014-10-31 05:13:00,73.1,68.0,29.80,West,271,2.5,3.1,84,0.00,,,0.00,TxWx,2014-10-31 09:13:00,
2014-10-31 05:18:00,73.0,68.0,29.80,West,271,1.9,2.5,84,0.00,,,0.00,TxWx,2014-10-31 09:18:00,
2014-10-31 05:23:00,73.0,68.0,29.80,West,271,1.9,1.9,84,0.00,,,0.00,TxWx,2014-10-31 09:23:00,
2014-10-31 05:28:00,72.9,68.0,29.80,West,271,3.1,3.1,84,0.00,,,0.00,TxWx,2014-10-31 09:28:00,
2014-10-31 05:33:00,72.8,68.0,29.80,West,271,2.5,2.5,85,0.00,,,0.00,TxWx,2014-10-31 09:33:00,
2014-10-31 05:38:00,72.8,68.0,29.80,West,271,3.1,3.1,85,0.00,,,0.00,TxWx,2014-10-31 09:38:00,
2014-10-31 05:43:00,72.8,68.0,29.80,West,271,2.5,2.5,85,0.00,,,0.00,TxWx,2014-10-31 09:43:00,
2014-10-31 05:48:00,72.7,68.0,29.80,West,271,3.1,3.1,85,0.00,,,0.00,TxWx,2014-10-31 09:48:00,
2014-10-31 05:53:00,72.8,68.0,29.81,West,271,3.7,3.7,86,0.00,,,0.00,TxWx,2014-10-31 09:53:00,
2014-10-31 05:58:00,72.5,68.0,29.81,West,271,3.1,3.7,86,0.00,,,0.00,TxWx,2014-10-31 09:58:00,
2014-10-31 06:03:00,72.3,68.0,29.81,West,271,3.7,3.7,86,0.00,,,0.00,TxWx,2014-10-31 10:03:00,
2014-10-31 06:08:00,72.3,68.0,29.81,West,271,3.7,3.7,87,0.00,,,0.00,TxWx,2014-10-31 10:08:00,
2014-10-31 06:13:00,72.1,68.0,29.81,WSW,249,3.1,3.7,87,0.00,,,0.00,TxWx,2014-10-31 10:13:00,
2014-10-31 06:18:00,71.9,68.0,29.81,WSW,249,4.3,4.3,87,0.00,,,0.00,TxWx,2014-10-31 10:18:00,
2014-10-31 06:23:00,71.7,68.0,29.81,West,271,3.7,4.3,87,0.00,,,0.00,TxWx,2014-10-31 10:23:00,
2014-10-31 06:28:00,71.7,68.0,29.81,WSW,249,5.0,5.0,88,0.00,,,0.00,TxWx,2014-10-31 10:28:00,
2014-10-31 06:33:00,71.6,68.0,29.81,WSW,249,3.7,3.7,88,0.00,,,0.00,TxWx,2014-10-31 10:33:00,
2014-10-31 06:38:00,71.5,68.0,29.82,WSW,249,3.1,3.1,88,0.00,,,0.00,TxWx,2014-10-31 10:38:00,
2014-10-31 06:43:00,71.4,67.0,29.82,WSW,249,2.5,2.5,88,0.00,,,0.00,TxWx,2014-10-31 10:43:00,
2014-10-31 06:48:00,71.3,67.0,29.82,WSW,249,3.1,3.7,88,0.00,,,0.00,TxWx,2014-10-31 10:48:00,
2014-10-31 06:53:00,71.3,67.0,29.82,WSW,249,4.3,5.0,89,0.00,,,0.00,TxWx,2014-10-31 10:53:00,
2014-10-31 06:58:00,71.2,67.0,29.82,West,271,4.3,4.3,89,0.00,,,0.00,TxWx,2014-10-31 10:58:00,
2014-10-31 07:03:00,71.3,68.0,29.83,WSW,249,6.8,6.8,89,0.00,,,0.00,TxWx,2014-10-31 11:03:00,
2014-10-31 07:08:00,71.2,68.0,29.82,West,271,4.3,5.6,89,0.00,,,0.00,TxWx,2014-10-31 11:08:00,
2014-10-31 07:13:00,71.2,68.0,29.82,West,271,5.6,5.6,90,0.00,,,0.00,TxWx,2014-10-31 11:13:00,
2014-10-31 07:18:00,71.0,68.0,29.83,WSW,249,7.4,7.4,90,0.00,,,0.00,TxWx,2014-10-31 11:18:00,
2014-10-31 07:22:00,71.2,68.0,29.83,West,271,7.4,7.4,90,0.00,,,0.00,TxWx,2014-10-31 11:22:00,
2014-10-31 07:27:00,71.0,68.0,29.83,West,271,7.4,7.4,90,0.00,,,0.00,TxWx,2014-10-31 11:27:00,
2014-10-31 07:32:00,71.0,68.0,29.83,WSW,249,7.4,8.0,90,0.00,,,0.00,TxWx,2014-10-31 11:32:00,
2014-10-31 07:37:00,71.0,68.0,29.83,WSW,249,7.4,8.0,90,0.00,,,0.00,TxWx,2014-10-31 11:37:00,